Winchester, VA

1:48 PM EST on February 07, 2016 (GMT -0500)
Winchester Regional

Weather History for KOKV - May, 2013

Change the Weather History Date:

Sunday, May 12, 2013

  Actual Average Record
Temperature  
Mean Temperature 53 °F -  
Max Temperature 60 °F 72 °F 93 °F (2000)
Min Temperature 46 °F 50 °F 38 °F (1990)
Degree Days  
Heating Degree Days 12    
Growing Degree Days 3 (Base 50)    
Moisture  
Dew Point 37 °F    
Average Humidity 53    
Maximum Humidity 82    
Minimum Humidity 36    
Precipitation  
Precipitation 0.00 in - - ()
Sea Level Pressure  
Sea Level Pressure 29.89 in    
Wind  
Wind Speed 13 mph (WNW)    
Max Wind Speed 23 mph    
Max Gust Speed 29 mph    
Visibility 10 miles    
Events      
Averages and records for this station are not official NWS values.
T = Trace of Precipitation, MM = Missing Value Source: NWS Daily Summary

Daily Weather History Graph

Daily Weather History Graph

Search for Another Location

Airport or City:

Trip Planner

Search our weather history database for the weather conditions in past years. The results will help you decide how hot, cold, wet, or windy it might be!

Date:

Astronomy

May. 12, 2013 Rise Set
Actual Time 6:02 AM EDT 8:16 PM EDT
Civil Twilight 5:32 AM EDT 8:46 PM EDT
Nautical Twilight 4:55 AM EDT 9:23 PM EDT
Astronomical Twilight 4:15 AM EDT 10:03 PM EDT
Moon 7:55 AM EDT (5/12) 10:41 PM EDT (5/12)
Length of Visible Light 15h 14m
Length of Day
14h 14m
Waxing Crescent, 6% of the Moon is Illuminated
May 12
Waxing Crescent
May 18
First Quarter
May 25
Full
May 31
Last Quarter
Jun 8
New

Hourly Weather History & Observations

Time (EDT) Temp. Windchill Dew Point Humidity Pressure Visibility Wind Dir Wind Speed Gust Speed Precip Events Conditions
12:15 AM 60.8 °F - 51.8 °F 72% 29.81 in 10.0 mi WNW 9.2 mph - N/A   Overcast
12:35 AM 60.8 °F - 51.8 °F 72% 29.81 in 10.0 mi NW 6.9 mph - N/A   Overcast
1:15 AM 60.8 °F - 51.8 °F 72% 29.80 in 10.0 mi WNW 9.2 mph - N/A   Overcast
1:35 AM 59.0 °F - 50.0 °F 72% 29.80 in 10.0 mi West 10.4 mph - N/A   Scattered Clouds
1:55 AM 59.0 °F - 48.2 °F 67% 29.78 in 10.0 mi WNW 16.1 mph 23.0 mph N/A   Scattered Clouds
2:15 AM 59.0 °F - 48.2 °F 67% 29.79 in 10.0 mi WNW 16.1 mph 21.9 mph N/A   Mostly Cloudy
2:35 AM 59.0 °F - 46.4 °F 63% 29.79 in 10.0 mi NW 19.6 mph 24.2 mph N/A   Scattered Clouds
2:55 AM 57.2 °F - 46.4 °F 67% 29.80 in 10.0 mi WNW 13.8 mph 19.6 mph N/A   Clear
3:15 AM 55.4 °F - 46.4 °F 72% 29.80 in 10.0 mi WNW 10.4 mph - N/A   Clear
3:35 AM 55.4 °F - 46.4 °F 72% 29.81 in 10.0 mi West 10.4 mph - N/A   Clear
3:55 AM 55.4 °F - 46.4 °F 72% 29.81 in 10.0 mi West 6.9 mph - N/A   Clear
4:15 AM 51.8 °F - 46.4 °F 82% 29.80 in 10.0 mi WNW 9.2 mph - N/A   Clear
4:35 AM 53.6 °F - 46.4 °F 77% 29.80 in 10.0 mi WNW 6.9 mph - N/A   Clear
4:55 AM 53.6 °F - 46.4 °F 77% 29.80 in 10.0 mi West 6.9 mph - N/A   Scattered Clouds
5:15 AM 51.8 °F - 46.4 °F 82% 29.80 in 10.0 mi West 5.8 mph - N/A   Scattered Clouds
5:35 AM 53.6 °F - 46.4 °F 77% 29.81 in 10.0 mi West 4.6 mph - N/A   Mostly Cloudy
5:55 AM 53.6 °F - 46.4 °F 77% 29.81 in 10.0 mi West 4.6 mph - N/A   Overcast
6:15 AM 53.6 °F - 46.4 °F 77% 29.82 in 10.0 mi WNW 19.6 mph 26.5 mph N/A   Overcast
6:35 AM 53.6 °F - 42.8 °F 67% 29.83 in 10.0 mi WNW 19.6 mph - N/A   Overcast
6:55 AM 53.6 °F - 39.2 °F 58% 29.84 in 10.0 mi NW 19.6 mph 26.5 mph N/A   Overcast
7:15 AM 51.8 °F - 37.4 °F 58% 29.85 in 10.0 mi WNW 17.3 mph 24.2 mph N/A   Overcast
7:35 AM 51.8 °F - 37.4 °F 58% 29.85 in 10.0 mi NW 15.0 mph 24.2 mph N/A   Overcast
7:55 AM 51.8 °F - 41.0 °F 67% 29.86 in 10.0 mi WNW 12.7 mph 18.4 mph N/A   Mostly Cloudy
8:15 AM 51.8 °F - 37.4 °F 58% 29.86 in 10.0 mi NW 12.7 mph 18.4 mph N/A   Scattered Clouds
8:35 AM 53.6 °F - 41.0 °F 62% 29.87 in 10.0 mi WNW 18.4 mph 24.2 mph N/A   Scattered Clouds
8:55 AM 53.6 °F - 37.4 °F 54% 29.87 in 10.0 mi WNW 17.3 mph 25.3 mph N/A   Scattered Clouds
9:15 AM 53.6 °F - 37.4 °F 54% 29.88 in 10.0 mi WNW 18.4 mph 26.5 mph N/A   Clear
9:35 AM 53.6 °F - 37.4 °F 54% 29.88 in 10.0 mi West 18.4 mph 24.2 mph N/A   Scattered Clouds
9:55 AM 53.6 °F - 37.4 °F 54% 29.89 in 10.0 mi WNW 17.3 mph 26.5 mph N/A   Scattered Clouds
10:15 AM 53.6 °F - 39.2 °F 58% 29.89 in 10.0 mi NW 19.6 mph 24.2 mph N/A   Mostly Cloudy
10:35 AM 53.6 °F - 37.4 °F 54% 29.89 in 10.0 mi WNW 17.3 mph 26.5 mph N/A   Mostly Cloudy
10:55 AM 53.6 °F - 37.4 °F 54% 29.90 in 10.0 mi WNW 12.7 mph 26.5 mph N/A   Scattered Clouds
11:15 AM 53.6 °F - 35.6 °F 51% 29.89 in 10.0 mi West 20.7 mph 25.3 mph N/A   Scattered Clouds
11:35 AM 55.4 °F - 33.8 °F 44% 29.90 in 10.0 mi WNW 20.7 mph 28.8 mph N/A   Clear
11:55 AM 55.4 °F - 32.0 °F 41% 29.89 in 10.0 mi West 17.3 mph 24.2 mph N/A   Clear
12:15 PM 55.4 °F - 32.0 °F 41% 29.89 in 10.0 mi WNW 19.6 mph 25.3 mph N/A   Clear
12:35 PM 55.4 °F - 32.0 °F 41% 29.89 in 10.0 mi NW 19.6 mph 24.2 mph N/A   Clear
12:55 PM 57.2 °F - 32.0 °F 38% 29.89 in 10.0 mi NW 15.0 mph 23.0 mph N/A   Scattered Clouds
1:15 PM 57.2 °F - 32.0 °F 38% 29.89 in 10.0 mi WNW 19.6 mph 27.6 mph N/A   Scattered Clouds
1:35 PM 59.0 °F - 32.0 °F 36% 29.89 in 10.0 mi WNW 13.8 mph 25.3 mph N/A   Scattered Clouds
1:55 PM 59.0 °F - 33.8 °F 39% 29.90 in 10.0 mi WNW 15.0 mph 25.3 mph N/A   Scattered Clouds
2:15 PM 57.2 °F - 32.0 °F 38% 29.90 in 10.0 mi WNW 19.6 mph 24.2 mph N/A   Scattered Clouds
2:35 PM 59.0 °F - 33.8 °F 39% 29.90 in 10.0 mi WNW 19.6 mph 27.6 mph N/A   Scattered Clouds
2:55 PM 59.0 °F - 35.6 °F 42% 29.90 in 10.0 mi WNW 20.7 mph 28.8 mph N/A   Scattered Clouds
3:15 PM 57.2 °F - 33.8 °F 41% 29.91 in 10.0 mi NW 18.4 mph 25.3 mph N/A   Scattered Clouds
3:35 PM 59.0 °F - 33.8 °F 39% 29.91 in 10.0 mi West 19.6 mph 26.5 mph N/A   Mostly Cloudy
3:55 PM 59.0 °F - 33.8 °F 39% 29.91 in 10.0 mi WNW 18.4 mph 28.8 mph N/A   Mostly Cloudy
4:15 PM 59.0 °F - 33.8 °F 39% 29.92 in 10.0 mi WNW 19.6 mph 26.5 mph N/A   Scattered Clouds
4:35 PM 55.4 °F - 32.0 °F 41% 29.92 in 10.0 mi NW 18.4 mph 25.3 mph N/A   Mostly Cloudy
4:55 PM 57.2 °F - 33.8 °F 41% 29.92 in 10.0 mi WNW 16.1 mph 24.2 mph N/A   Mostly Cloudy
5:15 PM 55.4 °F - 32.0 °F 41% 29.92 in 10.0 mi WNW 12.7 mph 19.6 mph N/A   Mostly Cloudy
5:35 PM 55.4 °F - 32.0 °F 41% 29.93 in 10.0 mi WNW 17.3 mph 21.9 mph N/A   Overcast
5:55 PM 57.2 °F - 32.0 °F 38% 29.93 in 10.0 mi WNW 17.3 mph 23.0 mph N/A   Overcast
6:15 PM 57.2 °F - 32.0 °F 38% 29.93 in 10.0 mi WNW 19.6 mph 25.3 mph N/A   Overcast
6:35 PM 55.4 °F - 32.0 °F 41% 29.94 in 10.0 mi West 23.0 mph 28.8 mph N/A   Scattered Clouds
6:55 PM 55.4 °F - 32.0 °F 41% 29.95 in 10.0 mi West 11.5 mph 24.2 mph N/A   Scattered Clouds
7:15 PM 53.6 °F - 30.2 °F 41% 29.95 in 10.0 mi West 15.0 mph 23.0 mph N/A   Scattered Clouds
7:35 PM 53.6 °F - 30.2 °F 41% 29.96 in 10.0 mi WNW 16.1 mph 27.6 mph N/A   Mostly Cloudy
7:55 PM 53.6 °F - 30.2 °F 41% 29.97 in 10.0 mi West 11.5 mph 18.4 mph N/A   Mostly Cloudy
8:15 PM 51.8 °F - 30.2 °F 44% 29.98 in 10.0 mi West 6.9 mph - N/A   Mostly Cloudy
8:35 PM 51.8 °F - 30.2 °F 44% 29.98 in 10.0 mi West 8.1 mph - N/A   Mostly Cloudy
8:55 PM 50.0 °F - 30.2 °F 47% 29.99 in 10.0 mi West 6.9 mph - N/A   Scattered Clouds
9:15 PM 51.8 °F - 28.4 °F 41% 30.00 in 10.0 mi West 9.2 mph 17.3 mph N/A   Scattered Clouds
9:35 PM 50.0 °F - 28.4 °F 43% 30.01 in 10.0 mi West 5.8 mph - N/A   Overcast
9:55 PM 50.0 °F - 28.4 °F 43% 30.03 in 10.0 mi WNW 6.9 mph - N/A   Overcast
10:15 PM 46.4 °F 43.5 °F 30.2 °F 53% 30.03 in 10.0 mi West 5.8 mph - N/A   Mostly Cloudy
10:35 PM 48.2 °F - 30.2 °F 50% 30.04 in 10.0 mi WSW 4.6 mph - N/A   Scattered Clouds
10:55 PM 48.2 °F - 30.2 °F 50% 30.04 in 10.0 mi West 5.8 mph - N/A   Clear
11:15 PM 48.2 °F - 30.2 °F 50% 30.04 in 10.0 mi West 6.9 mph - N/A   Clear
11:35 PM 46.4 °F 42.9 °F 30.2 °F 53% 30.04 in 10.0 mi West 6.9 mph - N/A   Clear
11:55 PM 46.4 °F 43.5 °F 30.2 °F 53% 30.04 in 10.0 mi West 5.8 mph - N/A   Clear